Regional Weather Roundup
Issued by NWS San Angelo, TX

Home | Current Version | Previous Version | Text Only | Print | Product List | Glossary On
Versions: 1 2 3 4 5 6 7 8 9 10 11 12 13 14 15 16 17 18 19 20 21 22 23 24 25 26 27 28 29 30 31 32 33 34 35 36 37 38 39 40 41 42 43 44 45 46 47 48 49 50
000
ASUS44 KSJT 251810
RWRSJT
WEST CENTRAL TEXAS REGIONAL WEATHER ROUNDUP
NATIONAL WEATHER SERVICE SAN ANGELO TX
100 PM CDT SAT OCT 25 2014

NOTE: "FAIR" INDICATES FEW OR NO CLOUDS BELOW 12,000 FEET WITH NO
SIGNIFICANT WEATHER AND/OR OBSTRUCTIONS TO VISIBILITY.

TXZ049-054-064>066-071>073-076>078-098-099-113-114-127-128-139-140-
154-155-168>170-251900
...LOCATIONS ACROSS WEST CENTRAL TEXAS...

CITY           SKY/WX    TMP DP  RH WIND       PRES   REMARKS
SAN ANGELO     SUNNY     85  55  35 S13       30.17F
ABILENE        SUNNY     85  56  37 S14       30.16F
DYESS AFB      SUNNY     86  54  32 S12       30.14F
JUNCTION       SUNNY     81  58  45 VRB6      30.18F
SWEETWATER     SUNNY     82  54  38 SW12      30.21F
BROWNWOOD      SUNNY     82  59  44 SW9G16    30.16F
COLEMAN        CLEAR     84  58  40 W9        30.17F
SONORA         SUNNY     81  57  44 S9G17     30.23F
OZONA          FAIR      79  55  44 S12G17    30.22F
BRADY          SUNNY     84  57  39 SW8       30.17F
$$

TEXAS PANHANDLE/OKLAHOMA PANHANDLE

CITY           SKY/WX    TMP DP  RH WIND       PRES   REMARKS
AMARILLO       SUNNY     82  50  32 S18       30.18F
BORGER         SUNNY     85  48  27 SW14G20   30.13F
CANADIAN       SUNNY     81  57  43 CALM      30.10F
DALHART        SUNNY     80  39  23 S10       30.17F
DUMAS            N/A     82  45  27 S14       30.15F
GUYMON         NOT AVBL
HEREFORD       CLEAR     83  49  30 S16       30.19F
PAMPA          CLEAR     83  49  30 SW15G21   30.16F
PERRYTON       SUNNY     84  49  30 S13       30.11F
$$

SOUTHERN PANHANDLE/SOUTH PLAINS/ROLLING PLAINS

CITY           SKY/WX    TMP DP  RH WIND       PRES   REMARKS
LUBBOCK        SUNNY     81  54  39 SW10      30.19F
SNYDER         SUNNY     76  61  60 S8        30.19F
CHILDRESS      SUNNY     86  56  35 SW7       30.13F
SEMINOLE       CLEAR     80  56  43 S12       30.21F
$$

PERMIAN BASIN

CITY           SKY/WX    TMP DP  RH WIND       PRES   REMARKS
MIDLAND        SUNNY     84  52  33 S12       30.18F
ODESSA         SUNNY     83  54  36 S13       30.19F
WINK           SUNNY     81  53  37 S5        30.17F
$$

FAR WEST/SOUTHWEST MOUNTAINS/TRANS PECOS

CITY           SKY/WX    TMP DP  RH WIND       PRES   REMARKS
ALPINE         CLEAR     79  47  33 SW9       30.33F
DRYDEN           N/A     78  61  55 SW3       30.17F
EL PASO        SUNNY     77  50  38 CALM      30.24F
FORT STOCKTON  SUNNY     84  51  31 VRB3      30.19F
GUADALUPE PASS SUNNY     73  50  44 SW20      30.33F
MARFA          SUNNY     75  50  41 S8        30.33F
PECOS          CLEAR     79  55  44 S3        30.18F
$$

DALLAS/FORT WORTH METROPLEX

CITY           SKY/WX    TMP DP  RH WIND       PRES   REMARKS
DFW AIRPORT    SUNNY     82  61  48 S6        30.12F
FTW MEACHAM    SUNNY     85  61  44 S13       30.11F
DAL-EXECUTIVE  SUNNY     85  60  42 VRB6      30.12F
GRAND PRAIRIE  SUNNY     82  63  51 MISG        N/A
ADDISON        SUNNY     82  59  44 SW7       30.13F
MESQUITE       NOT AVBL
LANCASTER      CLEAR     84  58  41 SW7       30.13F
$$

NORTH CENTRAL TEXAS

CITY           SKY/WX    TMP DP  RH WIND       PRES   REMARKS
SHRMAN/DENISON CLEAR     83  65  53 SW8       30.12F
GAINESVILLE    SUNNY     83  61  47 W5        30.13F
BRIDGEPORT     CLEAR     85  61  43 CALM      30.13F
DENTON         SUNNY     84  61  45 S7        30.11F
WAXAHACHIE     CLEAR     82  62  50 S3        30.15F
GRANBURY       CLEAR     86  60  40 S6        30.13F
$$

WESTERN NORTH TEXAS

CITY           SKY/WX    TMP DP  RH WIND       PRES   REMARKS
WICHITA FALLS  SUNNY     86  58  38 W10       30.10F
VERNON         CLEAR     88  52  29 SW8       30.11F
BRECKENRIDGE   CLEAR     86  57  37 W3        30.13F HAZE
COMANCHE       SUNNY     83  61  47 SW7       30.16F
$$

CENTRAL AND SOUTH CENTRAL TEXAS

CITY           SKY/WX    TMP DP  RH WIND       PRES   REMARKS
AUSTIN/BERGSTM SUNNY     83  59  44 SW9       30.15F
WACO           SUNNY     83  61  47 S8        30.14F
HILLSBORO      CLEAR     83  60  45 S9        30.14F
TEMPLE         SUNNY     81  59  47 S6        30.15F
KILLEEN-GRAY   SUNNY     83  60  46 VRB3      30.16F
FORT HOOD      SUNNY     85  61  44 VRB5      30.15F
GEORGETOWN     SUNNY     82  61  47 SW8       30.16F
LAGO VISTA     FAIR      82  59  45 W6        30.18F
SAN MARCOS     SUNNY     84  55  37 SW8       30.17F
NEW BRAUNFELS  SUNNY     84  56  38 VRB5      30.15F
RANDOLPH AFB   SUNNY     83  56  39 W6        30.17F
SAN ANTONIO    SUNNY     83  56  39 VRB7      30.17F
STINSON        SUNNY     83  56  39 S7        30.15F
PLEASANTON     NOT AVBL
LA GRANGE      SUNNY     83  62  48 CALM      30.14F
GIDDINGS       CLEAR     82  58  44 SW5       30.19F
$$

EAST TEXAS

CITY           SKY/WX    TMP DP  RH WIND       PRES   REMARKS
PARIS          SUNNY     81  61  50 SW7       30.12F
CLARKSVILLE    NOT AVBL
TYLER          SUNNY     82  60  47 SW12      30.15F
LONGVIEW       SUNNY     80  61  52 VRB6      30.14F
PALESTINE      CLEAR     82  63  52 CALM      30.17F
NACOGDOCHES    SUNNY     79  61  53 NW5       30.16F
$$

TEXAS HILL COUNTRY AND EDWARDS PLATEAU

CITY           SKY/WX    TMP DP  RH WIND       PRES   REMARKS
LLANO          NOT AVBL
HORSESHOE BAY  FAIR      84  58  41 W5        30.17F
KERRVILLE      SUNNY     81  61  49 SW5       30.19F
FREDERICKSBRG  SUNNY     78  58  49 SW7       30.19F
ROCKSPRINGS    CLEAR     81  57  44 S8        30.23F
HONDO          SUNNY     80  57  45 MISG      30.19F
UVALDE         CLEAR     82  59  46 SW6       30.17F
DEL RIO        SUNNY     82  65  56 SE10      30.14F
$$

SOUTHEAST TEXAS

CITY           SKY/WX    TMP DP  RH WIND       PRES   REMARKS
COLLEGE STN    SUNNY     81  59  47 CALM      30.16F
CALDWELL       CLEAR     81  57  44 SW3       30.18F
CROCKETT       CLEAR     82  64  54 W5        30.18F
BRENHAM        SUNNY     83  60  45 W5        30.16F
HUNTSVILLE     SUNNY     81  59  47 W3        30.15F
CONROE         SUNNY     81  58  45 VRB3      30.16F
HOUSTON BUSH   SUNNY     79  56  45 CALM      30.15F
HOUSTON HOBBY  SUNNY     80  54  40 CALM      30.15F
PERLAND        SUNNY     79  54  41 S3        30.17F
WHARTON        CLEAR     82  57  42 CALM      30.16F
$$

THE UPPER TEXAS COAST

CITY           SKY/WX    TMP DP  RH WIND       PRES   REMARKS
ORANGE         CLEAR     78  51  38 CALM      30.17F
PORT ARTHUR    SUNNY     81  50  33 CALM      30.15F
GALVESTON      SUNNY     78  58  49 VRB5      30.16F
ANGLETON       SUNNY     78  54  43 SE6       30.16F
BAY CITY         N/A     80  54  40 CALM      30.16F
$$

TEXAS COASTAL BEND, RIO GRANDE PLAINS DEEP SOUTH TEXAS

CITY           SKY/WX    TMP DP  RH WIND       PRES   REMARKS
VICTORIA       SUNNY     83  58  42 VRB3      30.16F
BEEVILLE       FAIR      84  58  40 NE3       30.15F
ROCKPORT       SUNNY     80  64  58 VRB6      30.15F
PORT ARANSAS   CLEAR     79  65  62 E8        30.15F
PORT LAVACA    CLEAR     80  59  47 SE5       30.16F
CORPUS CHRISTI SUNNY     82  63  52 E6        30.15F
KINGSVILLE NAS SUNNY     84  65  52 SE3       30.15F
COTULLA        SUNNY     86  58  38 MISG      30.15F
LAREDO         SUNNY     85  61  44 S6        30.17F
BROWNSVILLE    SUNNY     84  66  54 CALM      30.14F
PORT ISABEL    SUNNY     82  64  54 MISG      30.14F
HEBBRONVILLE   CLEAR     84  54  36 E5        30.16F
MCALLEN        SUNNY     81  63  54 CALM      30.15F
WESLACO        SUNNY     83  62  48 CALM      30.14F
FALFURRIAS     CLEAR     83  61  48 SE3       30.14F
EDINBURG       CLEAR     84  61  46 CALM      30.15F
$$



USA.gov is the U.S. government's official web portal to all federal, state and local government web resources and services.